Location: Kerguer�zec
(48.4509°N, 4.7600°W)
Time: 09:23:50
(UTC+00:00)

Aureole 1 Rocket - Pass Details

Date: 09 April 2020
Orbit: 379 x 1379 km, 73.9° (Epoch: 24 May)

Event Time Altitude Azimuth Distance (km) Brightness Sun altitude
Rises 20:18:09 0° 207° (SSW) 4,159 7.3 -12.6°
Reaches altitude 10° 20:21:10 10° 210° (SSW) 3,076 6.6 -13.1°
Maximum altitude 20:28:24 72° 294° (WNW) 1,025 4.3 -14.1°
Drops below altitude 10° 20:33:57 10° 19° (NNE) 2,391 6.2 -14.9°
Sets 20:36:05 0° 22° (NNE) 3,184 6.8 -15.2°
